Milwaukee Timmerman, WI

2:24 AM CDT on October 20, 2017 (GMT -0500)
Timmerman

Weather History for KMWC - February, 2012

Change the Weather History Date:

Saturday, February 25, 2012

  Actual Average Record
Temperature  
Mean Temperature 22 °F -  
Max Temperature 28 °F 33 °F 54 °F (1957)
Min Temperature 17 °F 19 °F -10 °F (1967)
Degree Days  
Heating Degree Days 42    
Moisture  
Dew Point 12 °F    
Average Humidity 65    
Maximum Humidity 74    
Minimum Humidity 51    
Precipitation  
Precipitation 0.00 in - - ()
Sea Level Pressure  
Sea Level Pressure 30.11 in    
Wind  
Wind Speed 11 mph (West)    
Max Wind Speed 17 mph    
Max Gust Speed 24 mph    
Visibility 10 miles    
Events      
Averages and records for this station are not official NWS values.
T = Trace of Precipitation, MM = Missing Value Source: NWS Daily Summary

Daily Weather History Graph

Daily Weather History Graph

Search for Another Location

Airport or City:

Trip Planner

Search our weather history database for the weather conditions in past years. The results will help you decide how hot, cold, wet, or windy it might be!

Date:

Astronomy

Feb. 25, 2012 Rise Set
Actual Time 6:35 AM CST 5:35 PM CST
Civil Twilight 6:06 AM CST 6:04 PM CST
Nautical Twilight 5:33 AM CST 6:37 PM CST
Astronomical Twilight 5:00 AM CST 7:10 PM CST
Moon 7:51 AM CST (2/25) 9:45 PM CST (2/25)
Length of Visible Light 11h 57m
Length of Day
11h 00m
Waxing Crescent, 14% of the Moon is Illuminated
Feb 25
Waxing Crescent
Feb 29
First Quarter
Mar 8
Full
Mar 14
Last Quarter
Mar 22
New

Hourly Weather History & Observations

Time (CST) Temp. Windchill Dew Point Humidity Pressure Visibility Wind Dir Wind Speed Gust Speed Precip Events Conditions
12:15 AM 26.6 °F 15.7 °F 14.0 °F 59% 29.88 in 10.0 mi West 12.7 mph 18.4 mph N/A   Overcast
12:35 AM 26.6 °F 14.3 °F 14.0 °F 59% 29.88 in 10.0 mi WNW 16.1 mph 24.2 mph N/A   Overcast
12:55 AM 26.6 °F 15.2 °F 12.2 °F 55% 29.89 in 10.0 mi WNW 13.8 mph 18.4 mph N/A   Overcast
1:15 AM 26.6 °F 16.2 °F 12.2 °F 55% 29.90 in 10.0 mi WNW 11.5 mph 18.4 mph N/A   Overcast
1:35 AM 26.6 °F 16.2 °F 12.2 °F 55% 29.90 in 10.0 mi WNW 11.5 mph - N/A   Overcast
1:55 AM 24.8 °F 15.3 °F 12.2 °F 59% 29.90 in 10.0 mi WNW 9.2 mph - N/A   Overcast
2:15 AM 24.8 °F 15.3 °F 12.2 °F 59% 29.91 in 10.0 mi West 9.2 mph - N/A   Overcast
2:35 AM 24.8 °F 13.4 °F 12.2 °F 59% 29.91 in 10.0 mi WNW 12.7 mph 19.6 mph N/A   Overcast
2:55 AM 24.8 °F 12.9 °F 12.2 °F 59% 29.92 in 10.0 mi West 13.8 mph - N/A   Overcast
3:15 AM 23.0 °F 10.6 °F 12.2 °F 63% 29.92 in 10.0 mi WNW 13.8 mph - N/A   Overcast
3:35 AM 23.0 °F 11.7 °F 12.2 °F 63% 29.93 in 10.0 mi WNW 11.5 mph 18.4 mph N/A   Overcast
3:55 AM 23.0 °F 10.1 °F 12.2 °F 63% 29.95 in 10.0 mi WNW 15.0 mph 18.4 mph N/A   Overcast
4:15 AM 23.0 °F 11.1 °F 14.0 °F 68% 29.95 in 10.0 mi WNW 12.7 mph - N/A   Overcast
4:35 AM 23.0 °F 11.1 °F 14.0 °F 68% 29.96 in 10.0 mi WNW 12.7 mph - N/A   Overcast
4:55 AM 23.0 °F 10.1 °F 14.0 °F 68% 29.97 in 10.0 mi WNW 15.0 mph 21.9 mph N/A   Overcast
5:15 AM 23.0 °F 10.6 °F 14.0 °F 68% 29.98 in 10.0 mi WNW 13.8 mph 18.4 mph N/A   Overcast
5:55 AM 23.0 °F 9.2 °F 14.0 °F 68% 30.00 in 10.0 mi WNW 17.3 mph 23.0 mph N/A   Overcast
6:45 AM 21.2 °F 9.5 °F 12.2 °F 68% 30.03 in 10.0 mi WNW 11.5 mph - N/A   Overcast
7:45 AM 19.4 °F 7.2 °F 12.2 °F 74% 30.06 in 10.0 mi West 11.5 mph 17.3 mph N/A   Scattered Clouds
8:45 AM 19.4 °F 7.2 °F 12.2 °F 74% 30.10 in 10.0 mi WNW 11.5 mph 20.7 mph N/A   Clear
9:45 AM 21.2 °F 8.3 °F 12.2 °F 68% 30.12 in 10.0 mi NW 13.8 mph 20.7 mph N/A   Clear
10:45 AM 23.0 °F 10.6 °F 12.2 °F 63% 30.15 in 10.0 mi WNW 13.8 mph - N/A   Clear
11:45 AM 24.8 °F 12.9 °F 12.2 °F 59% 30.18 in 10.0 mi West 13.8 mph - N/A   Clear
12:45 PM 26.6 °F 15.2 °F 12.2 °F 55% 30.18 in 10.0 mi West 13.8 mph - N/A   Clear
1:50 PM 26.6 °F 16.2 °F 12.2 °F 55% 30.19 in 10.0 mi West 11.5 mph - N/A   Clear
2:50 PM 28.4 °F 22.2 °F 12.2 °F 51% 30.19 in 10.0 mi West 5.8 mph - N/A   Clear
4:45 PM 26.6 °F 18.2 °F 12.2 °F 55% 30.21 in 10.0 mi West 8.1 mph - N/A   Clear
5:45 PM 26.6 °F 21.2 °F 12.2 °F 55% 30.22 in 10.0 mi West 4.6 mph - N/A   Clear
6:45 PM 23.0 °F 15.8 °F 12.2 °F 63% 30.25 in 10.0 mi WSW 5.8 mph - N/A   Clear
7:45 PM 21.2 °F 13.6 °F 12.2 °F 68% 30.27 in 10.0 mi SSW 5.8 mph - N/A   Clear
8:15 PM 21.2 °F 11.7 °F 12.2 °F 68% 30.28 in 10.0 mi SW 8.1 mph - N/A   Clear
8:35 PM 21.2 °F 13.6 °F 12.2 °F 68% 30.28 in 10.0 mi SW 5.8 mph - N/A   Clear
8:45 PM 19.4 °F 11.5 °F 12.2 °F 74% 30.27 in 10.0 mi SSW 5.8 mph - N/A   Clear
8:55 PM 21.2 °F 13.6 °F 12.2 °F 68% 30.28 in 10.0 mi SW 5.8 mph - N/A   Clear
9:15 PM 19.4 °F 11.5 °F 10.4 °F 68% 30.28 in 10.0 mi SW 5.8 mph - N/A   Clear
9:35 PM 19.4 °F 11.5 °F 12.2 °F 74% 30.28 in 10.0 mi SW 5.8 mph - N/A   Clear
9:55 PM 19.4 °F 11.5 °F 10.4 °F 68% 30.28 in 10.0 mi SW 5.8 mph - N/A   Clear
10:15 PM 17.6 °F 9.3 °F 10.4 °F 73% 30.28 in 10.0 mi SW 5.8 mph - N/A   Clear
10:35 PM 17.6 °F 10.7 °F 10.4 °F 73% 30.28 in 10.0 mi SSW 4.6 mph - N/A   Clear
10:55 PM 17.6 °F 10.7 °F 10.4 °F 73% 30.28 in 10.0 mi SW 4.6 mph - N/A   Clear
11:15 PM 17.6 °F 10.7 °F 10.4 °F 73% 30.28 in 10.0 mi SW 4.6 mph - N/A   Clear
11:35 PM 17.6 °F - 10.4 °F 73% 30.28 in 10.0 mi Calm Calm - N/A   Clear
11:55 PM 17.6 °F - 10.4 °F 73% 30.28 in 10.0 mi Calm Calm - N/A   Clear